Year,Month,Day,Hour,Minute,Value (Times are PST for temperature in C)
2017,04,21,00,00,9.00
2017,04,21,00,01,9.10
2017,04,21,00,02,9.10
2017,04,21,00,03,9.10
2017,04,21,00,04,9.10
2017,04,21,00,05,9.10
2017,04,21,00,06,9.10
2017,04,21,00,07,9.10
2017,04,21,00,08,9.10
2017,04,21,00,09,9.10
2017,04,21,00,10,9.10
2017,04,21,00,11,9.10
2017,04,21,00,12,9.10
2017,04,21,00,13,9.10
2017,04,21,00,14,9.10
2017,04,21,00,15,9.10
2017,04,21,00,16,9.10
2017,04,21,00,17,9.10
2017,04,21,00,18,9.10
2017,04,21,00,19,9.20
2017,04,21,00,20,9.20
2017,04,21,00,21,9.20
2017,04,21,00,22,9.20
2017,04,21,00,23,9.20
2017,04,21,00,24,9.30
2017,04,21,00,25,9.30
2017,04,21,00,26,9.30
2017,04,21,00,27,9.30
2017,04,21,00,28,9.30
2017,04,21,00,29,9.30
2017,04,21,00,30,9.30
2017,04,21,00,31,9.30
2017,04,21,00,32,9.30
2017,04,21,00,33,9.30
2017,04,21,00,34,9.30
2017,04,21,00,35,9.30
2017,04,21,00,36,9.30
2017,04,21,00,37,9.30
2017,04,21,00,38,9.30
2017,04,21,00,39,9.30
2017,04,21,00,40,9.30
2017,04,21,00,41,9.30
2017,04,21,00,42,9.30
2017,04,21,00,43,9.30
2017,04,21,00,44,9.30
2017,04,21,00,45,9.30
2017,04,21,00,46,9.30
2017,04,21,00,47,9.30
2017,04,21,00,48,9.30
2017,04,21,00,49,9.30
2017,04,21,00,50,9.30
2017,04,21,00,51,9.40
2017,04,21,00,52,9.40
2017,04,21,00,53,9.40
2017,04,21,00,54,9.30
2017,04,21,00,55,9.30
2017,04,21,00,56,9.30
2017,04,21,00,57,9.30
2017,04,21,00,58,9.30
2017,04,21,00,59,9.30
2017,04,21,01,00,9.30
2017,04,21,01,01,9.30
2017,04,21,01,02,9.30
2017,04,21,01,03,9.30
2017,04,21,01,04,9.20
2017,04,21,01,05,9.20
2017,04,21,01,06,9.20
2017,04,21,01,07,9.20
2017,04,21,01,08,9.20
2017,04,21,01,09,9.20
2017,04,21,01,10,9.10
2017,04,21,01,11,9.10
2017,04,21,01,12,9.10
2017,04,21,01,13,9.10
2017,04,21,01,14,9.00
2017,04,21,01,15,9.00
2017,04,21,01,16,9.00
2017,04,21,01,17,8.90
2017,04,21,01,18,8.90
2017,04,21,01,19,8.90
2017,04,21,01,20,8.80
2017,04,21,01,21,8.80
2017,04,21,01,22,8.70
2017,04,21,01,23,8.70
2017,04,21,01,24,8.70
2017,04,21,01,25,8.70
2017,04,21,01,26,8.60
2017,04,21,01,27,8.60
2017,04,21,01,28,8.60
2017,04,21,01,29,8.50
2017,04,21,01,30,8.50
2017,04,21,01,31,8.50
2017,04,21,01,32,8.40
2017,04,21,01,33,8.40
2017,04,21,01,34,8.40
2017,04,21,01,35,8.30
2017,04,21,01,36,8.30
2017,04,21,01,37,8.30
2017,04,21,01,38,8.20
2017,04,21,01,39,8.20
2017,04,21,01,40,8.10
2017,04,21,01,41,8.10
2017,04,21,01,42,8.00
2017,04,21,01,43,8.00
2017,04,21,01,44,7.90
2017,04,21,01,45,7.90
2017,04,21,01,46,7.80
2017,04,21,01,47,7.80
2017,04,21,01,48,7.80
2017,04,21,01,49,7.70
2017,04,21,01,50,7.70
2017,04,21,01,51,7.70
2017,04,21,01,52,7.60
2017,04,21,01,53,7.60
2017,04,21,01,54,7.60
2017,04,21,01,55,7.50
2017,04,21,01,56,7.50
2017,04,21,01,57,7.40
2017,04,21,01,58,7.40
2017,04,21,01,59,7.40
2017,04,21,02,00,7.30
2017,04,21,02,01,7.30
2017,04,21,02,02,7.30
2017,04,21,02,03,7.30
2017,04,21,02,04,7.20
2017,04,21,02,05,7.20
2017,04,21,02,06,7.20
2017,04,21,02,07,7.10
2017,04,21,02,08,7.10
2017,04,21,02,09,7.10
2017,04,21,02,10,7.00
2017,04,21,02,11,7.00
2017,04,21,02,12,7.00
2017,04,21,02,13,6.90
2017,04,21,02,14,6.90
2017,04,21,02,15,6.90
2017,04,21,02,16,6.80
2017,04,21,02,17,6.80
2017,04,21,02,18,6.80
2017,04,21,02,19,6.80
2017,04,21,02,20,6.70
2017,04,21,02,21,6.70
2017,04,21,02,22,6.70
2017,04,21,02,23,6.70
2017,04,21,02,24,6.60
2017,04,21,02,25,6.60
2017,04,21,02,26,6.60
2017,04,21,02,27,6.50
2017,04,21,02,28,6.50
2017,04,21,02,29,6.40
2017,04,21,02,30,6.40
2017,04,21,02,31,6.40
2017,04,21,02,32,6.40
2017,04,21,02,33,6.30
2017,04,21,02,34,6.30
2017,04,21,02,35,6.30
2017,04,21,02,36,6.30
2017,04,21,02,37,6.20
2017,04,21,02,38,6.20
2017,04,21,02,39,6.20
2017,04,21,02,40,6.20
2017,04,21,02,41,6.10
2017,04,21,02,42,6.10
2017,04,21,02,43,6.10
2017,04,21,02,44,6.10
2017,04,21,02,45,6.10
2017,04,21,02,46,6.00
2017,04,21,02,47,6.00
2017,04,21,02,48,6.00
2017,04,21,02,49,6.00
2017,04,21,02,50,6.00
2017,04,21,02,51,6.00
2017,04,21,02,52,6.00
2017,04,21,02,53,6.00
2017,04,21,02,54,5.90
2017,04,21,02,55,5.90
2017,04,21,02,56,5.90
2017,04,21,02,57,5.90
2017,04,21,02,58,5.90
2017,04,21,02,59,5.90
2017,04,21,03,00,5.90
2017,04,21,03,01,5.90
2017,04,21,03,02,5.90
2017,04,21,03,03,5.90
2017,04,21,03,04,5.90
2017,04,21,03,05,5.90
2017,04,21,03,06,5.90
2017,04,21,03,07,5.90
2017,04,21,03,08,5.80
2017,04,21,03,09,5.80
2017,04,21,03,10,5.80
2017,04,21,03,11,5.80
2017,04,21,03,12,5.80
2017,04,21,03,13,5.80
2017,04,21,03,14,5.80
2017,04,21,03,15,5.80
2017,04,21,03,16,5.80
2017,04,21,03,17,5.80
2017,04,21,03,18,5.80
2017,04,21,03,19,5.80
2017,04,21,03,20,5.80
2017,04,21,03,21,5.80
2017,04,21,03,22,5.80
2017,04,21,03,23,5.80
2017,04,21,03,24,5.80
2017,04,21,03,25,5.80
2017,04,21,03,26,5.80
2017,04,21,03,27,5.80
2017,04,21,03,28,5.80
2017,04,21,03,29,5.70
2017,04,21,03,30,5.70
2017,04,21,03,31,5.70
2017,04,21,03,32,5.70
2017,04,21,03,33,5.70
2017,04,21,03,34,5.70
2017,04,21,03,35,5.70
2017,04,21,03,36,5.70
2017,04,21,03,37,5.70
2017,04,21,03,38,5.70
2017,04,21,03,39,5.70
2017,04,21,03,40,5.70
2017,04,21,03,41,5.70
2017,04,21,03,42,5.70
2017,04,21,03,43,5.60
2017,04,21,03,44,5.60
2017,04,21,03,45,5.60
2017,04,21,03,46,5.60
2017,04,21,03,47,5.60
2017,04,21,03,48,5.60
2017,04,21,03,49,5.50
2017,04,21,03,50,5.50
2017,04,21,03,51,5.50
2017,04,21,03,52,5.50
2017,04,21,03,53,5.50
2017,04,21,03,54,5.50
2017,04,21,03,55,5.50
2017,04,21,03,56,5.40
2017,04,21,03,57,5.40
2017,04,21,03,58,5.40
2017,04,21,03,59,5.40
2017,04,21,04,00,5.40
2017,04,21,04,01,5.40
2017,04,21,04,02,5.40
2017,04,21,04,03,5.40
2017,04,21,04,04,5.40
2017,04,21,04,05,5.40
2017,04,21,04,06,5.40
2017,04,21,04,07,5.40
2017,04,21,04,08,5.40
2017,04,21,04,09,5.30
2017,04,21,04,10,5.30
2017,04,21,04,11,5.30
2017,04,21,04,12,5.30
2017,04,21,04,13,5.30
2017,04,21,04,14,5.30
2017,04,21,04,15,5.30
2017,04,21,04,16,5.20
2017,04,21,04,17,5.20
2017,04,21,04,18,5.20
2017,04,21,04,19,5.20
2017,04,21,04,20,5.20
2017,04,21,04,21,5.20
2017,04,21,04,22,5.20
2017,04,21,04,23,5.20
2017,04,21,04,24,5.20
2017,04,21,04,25,5.20
2017,04,21,04,26,5.20
2017,04,21,04,27,5.20
2017,04,21,04,28,5.20
2017,04,21,04,29,5.20
2017,04,21,04,30,5.20
2017,04,21,04,31,5.10
2017,04,21,04,32,5.10
2017,04,21,04,33,5.10
2017,04,21,04,34,5.10
2017,04,21,04,35,5.10
2017,04,21,04,36,5.00
2017,04,21,04,37,5.00
2017,04,21,04,38,4.90
2017,04,21,04,39,4.90
2017,04,21,04,40,4.90
2017,04,21,04,41,4.90
2017,04,21,04,42,4.90
2017,04,21,04,43,4.80
2017,04,21,04,44,4.80
2017,04,21,04,45,4.80
2017,04,21,04,46,4.80
2017,04,21,04,47,4.80
2017,04,21,04,48,4.70
2017,04,21,04,49,4.70
2017,04,21,04,50,4.70
2017,04,21,04,51,4.70
2017,04,21,04,52,4.70
2017,04,21,04,53,4.70
2017,04,21,04,54,4.70
2017,04,21,04,55,4.70
2017,04,21,04,56,4.70
2017,04,21,04,57,4.70
2017,04,21,04,58,4.60
2017,04,21,04,59,4.60
2017,04,21,05,00,4.60
2017,04,21,05,01,4.60
2017,04,21,05,02,4.50
2017,04,21,05,03,4.50
2017,04,21,05,04,4.50
2017,04,21,05,05,4.50
2017,04,21,05,06,4.40
2017,04,21,05,07,4.40
2017,04,21,05,08,4.40
2017,04,21,05,09,4.40
2017,04,21,05,10,4.40
2017,04,21,05,11,4.40
2017,04,21,05,12,4.40
2017,04,21,05,13,4.40
2017,04,21,05,14,4.30
2017,04,21,05,15,4.30
2017,04,21,05,16,4.30
2017,04,21,05,17,4.30
2017,04,21,05,18,4.30
2017,04,21,05,19,4.40
2017,04,21,05,20,4.40
2017,04,21,05,21,4.40
2017,04,21,05,22,4.40
2017,04,21,05,23,4.40
2017,04,21,05,24,4.40
2017,04,21,05,25,4.50
2017,04,21,05,26,4.50
2017,04,21,05,27,4.60
2017,04,21,05,28,4.60
2017,04,21,05,29,4.70
2017,04,21,05,30,4.80
2017,04,21,05,31,4.90
2017,04,21,05,32,4.90
2017,04,21,05,33,5.00
2017,04,21,05,34,5.00
2017,04,21,05,35,5.10
2017,04,21,05,36,5.10
2017,04,21,05,37,5.10
2017,04,21,05,38,5.10
2017,04,21,05,39,5.10
2017,04,21,05,40,5.10
2017,04,21,05,41,5.10
2017,04,21,05,42,5.10
2017,04,21,05,43,5.10
2017,04,21,05,44,5.10
2017,04,21,05,45,5.10
2017,04,21,05,46,5.20
2017,04,21,05,47,5.20
2017,04,21,05,48,5.20
2017,04,21,05,49,5.20
2017,04,21,05,50,5.20
2017,04,21,05,51,5.20
2017,04,21,05,52,5.20
2017,04,21,05,53,5.20
2017,04,21,05,54,5.20
2017,04,21,05,55,5.20
2017,04,21,05,56,5.30
2017,04,21,05,57,5.30
2017,04,21,05,58,5.30
2017,04,21,05,59,5.30
2017,04,21,06,00,5.30
2017,04,21,06,01,5.40
2017,04,21,06,02,5.40
2017,04,21,06,03,5.40
2017,04,21,06,04,5.40
2017,04,21,06,05,5.40
2017,04,21,06,06,5.40
2017,04,21,06,07,5.40
2017,04,21,06,08,5.40
2017,04,21,06,09,5.40
2017,04,21,06,10,5.40
2017,04,21,06,11,5.40
2017,04,21,06,12,5.40
2017,04,21,06,13,5.50
2017,04,21,06,14,5.50
2017,04,21,06,15,5.50
2017,04,21,06,16,5.50
2017,04,21,06,17,5.60
2017,04,21,06,18,5.60
2017,04,21,06,19,5.60
2017,04,21,06,20,5.60
2017,04,21,06,21,5.70
2017,04,21,06,22,5.70
2017,04,21,06,23,5.70
2017,04,21,06,24,5.80
2017,04,21,06,25,5.80
2017,04,21,06,26,5.90
2017,04,21,06,27,5.90
2017,04,21,06,28,6.00
2017,04,21,06,29,6.10
2017,04,21,06,30,6.10
2017,04,21,06,31,6.10
2017,04,21,06,32,6.20
2017,04,21,06,33,6.20
2017,04,21,06,34,6.20
2017,04,21,06,35,6.20
2017,04,21,06,36,6.20
2017,04,21,06,37,6.20
2017,04,21,06,38,6.20
2017,04,21,06,39,6.20
2017,04,21,06,40,6.20
2017,04,21,06,41,6.20
2017,04,21,06,42,6.20
2017,04,21,06,43,6.20
2017,04,21,06,44,6.20
2017,04,21,06,45,6.30
2017,04,21,06,46,6.30
2017,04,21,06,47,6.30
2017,04,21,06,48,6.30
2017,04,21,06,49,6.30
2017,04,21,06,50,6.30
2017,04,21,06,51,6.30
2017,04,21,06,52,6.30
2017,04,21,06,53,6.30
2017,04,21,06,54,6.30
2017,04,21,06,55,6.30
2017,04,21,06,56,6.30
2017,04,21,06,57,6.30
2017,04,21,06,58,6.30
2017,04,21,06,59,6.30
2017,04,21,07,00,6.30
2017,04,21,07,01,6.30
2017,04,21,07,02,6.30
2017,04,21,07,03,6.30
2017,04,21,07,04,6.30
2017,04,21,07,05,6.30
2017,04,21,07,06,6.30
2017,04,21,07,07,6.30
2017,04,21,07,08,6.30
2017,04,21,07,09,6.30
2017,04,21,07,10,6.30
2017,04,21,07,11,6.40
2017,04,21,07,12,6.40
2017,04,21,07,13,6.40
2017,04,21,07,14,6.40
2017,04,21,07,15,6.50
2017,04,21,07,16,6.50
2017,04,21,07,17,6.50
2017,04,21,07,18,6.60
2017,04,21,07,19,6.60
2017,04,21,07,20,6.70
2017,04,21,07,21,6.70
2017,04,21,07,22,6.80
2017,04,21,07,23,6.80
2017,04,21,07,24,6.80
2017,04,21,07,25,6.80
2017,04,21,07,26,6.80
2017,04,21,07,27,6.90
2017,04,21,07,28,6.90
2017,04,21,07,29,7.00
2017,04,21,07,30,7.00
2017,04,21,07,31,7.10
2017,04,21,07,32,7.10
2017,04,21,07,33,7.20
2017,04,21,07,34,7.20
2017,04,21,07,35,7.20
2017,04,21,07,36,7.30
2017,04,21,07,37,7.40
2017,04,21,07,38,7.50
2017,04,21,07,39,7.60
2017,04,21,07,40,7.70
2017,04,21,07,41,7.80
2017,04,21,07,42,7.80
2017,04,21,07,43,7.90
2017,04,21,07,44,7.90
2017,04,21,07,45,8.00
2017,04,21,07,46,8.10
2017,04,21,07,47,8.10
2017,04,21,07,48,8.20
2017,04,21,07,49,8.20
2017,04,21,07,50,8.20
2017,04,21,07,51,8.30
2017,04,21,07,52,8.30
2017,04,21,07,53,8.30
2017,04,21,07,54,8.40
2017,04,21,07,55,8.40
2017,04,21,07,56,8.50
2017,04,21,07,57,8.60
2017,04,21,07,58,8.60
2017,04,21,07,59,8.70
2017,04,21,08,00,8.70
2017,04,21,08,01,8.70
2017,04,21,08,02,8.70
2017,04,21,08,03,8.80
2017,04,21,08,04,8.80
2017,04,21,08,05,8.80
2017,04,21,08,06,8.80
2017,04,21,08,07,8.90
2017,04,21,08,08,8.90
2017,04,21,08,09,9.00
2017,04,21,08,10,9.10
2017,04,21,08,11,9.20
2017,04,21,08,12,9.20
2017,04,21,08,13,9.30
2017,04,21,08,14,9.30
2017,04,21,08,15,9.30
2017,04,21,08,16,9.40
2017,04,21,08,17,9.40
2017,04,21,08,18,9.40
2017,04,21,08,19,9.50
2017,04,21,08,20,9.60
2017,04,21,08,21,9.70
2017,04,21,08,22,9.80
2017,04,21,08,23,9.80
2017,04,21,08,24,9.90
2017,04,21,08,25,9.90
2017,04,21,08,26,9.80
2017,04,21,08,27,9.80
2017,04,21,08,28,9.80
2017,04,21,08,29,9.80
2017,04,21,08,30,9.70
2017,04,21,08,31,9.70
2017,04,21,08,32,9.70
2017,04,21,08,33,9.70
2017,04,21,08,34,9.70
2017,04,21,08,35,9.70
2017,04,21,08,36,9.70
2017,04,21,08,37,9.70
2017,04,21,08,38,9.70
2017,04,21,08,39,9.70
2017,04,21,08,40,9.70
2017,04,21,08,41,9.70
2017,04,21,08,42,9.70
2017,04,21,08,43,9.70
2017,04,21,08,44,9.70
2017,04,21,08,45,9.70
2017,04,21,08,46,9.70
2017,04,21,08,47,9.70
2017,04,21,08,48,9.70
2017,04,21,08,49,9.70
2017,04,21,08,50,9.80
2017,04,21,08,51,9.80
2017,04,21,08,52,9.80
2017,04,21,08,53,9.80
2017,04,21,08,54,9.70
2017,04,21,08,55,9.70
2017,04,21,08,56,9.70
2017,04,21,08,57,9.80
2017,04,21,08,58,9.80
2017,04,21,08,59,9.90
2017,04,21,09,00,10.00
2017,04,21,09,01,10.00
2017,04,21,09,02,10.00
2017,04,21,09,03,10.10
2017,04,21,09,04,10.20
2017,04,21,09,05,10.20
2017,04,21,09,06,10.30
2017,04,21,09,07,10.30
2017,04,21,09,08,10.40
2017,04,21,09,09,10.40
2017,04,21,09,10,10.40
2017,04,21,09,11,10.50
2017,04,21,09,12,10.50
2017,04,21,09,13,10.60
2017,04,21,09,14,10.70
2017,04,21,09,15,10.70
2017,04,21,09,16,10.80
2017,04,21,09,17,10.90
2017,04,21,09,18,10.90
2017,04,21,09,19,11.00
2017,04,21,09,20,11.00
2017,04,21,09,21,11.00
2017,04,21,09,22,11.00
2017,04,21,09,23,11.00
2017,04,21,09,24,10.90
2017,04,21,09,25,10.80
2017,04,21,09,26,10.70
2017,04,21,09,27,10.70
2017,04,21,09,28,10.70
2017,04,21,09,29,10.80
2017,04,21,09,30,10.80
2017,04,21,09,31,10.90
2017,04,21,09,32,10.90
2017,04,21,09,33,10.90
2017,04,21,09,34,11.00
2017,04,21,09,35,11.00
2017,04,21,09,36,11.00
2017,04,21,09,37,11.10
2017,04,21,09,38,11.10
2017,04,21,09,39,11.10
2017,04,21,09,40,11.10
2017,04,21,09,41,11.00
2017,04,21,09,42,11.10
2017,04,21,09,43,11.20
2017,04,21,09,44,11.30
2017,04,21,09,45,11.40
2017,04,21,09,46,11.60
2017,04,21,09,47,11.80
2017,04,21,09,48,11.80
2017,04,21,09,49,11.80
2017,04,21,09,50,11.70
2017,04,21,09,51,11.60
2017,04,21,09,52,11.60
2017,04,21,09,53,11.60
2017,04,21,09,54,11.60
2017,04,21,09,55,11.70
2017,04,21,09,56,11.70
2017,04,21,09,57,11.70
2017,04,21,09,58,11.70
2017,04,21,09,59,11.80
2017,04,21,10,00,11.80
2017,04,21,10,01,11.80
2017,04,21,10,02,11.80
2017,04,21,10,03,11.80
2017,04,21,10,04,11.80
2017,04,21,10,05,11.80
2017,04,21,10,06,11.90
2017,04,21,10,07,11.90
2017,04,21,10,08,11.80
2017,04,21,10,09,11.80
2017,04,21,10,10,11.90
2017,04,21,10,11,11.90
2017,04,21,10,12,12.00
2017,04,21,10,13,12.00
2017,04,21,10,14,12.00
2017,04,21,10,15,12.00
2017,04,21,10,16,12.10
2017,04,21,10,17,12.20
2017,04,21,10,18,12.30
2017,04,21,10,19,12.30
2017,04,21,10,20,12.30
2017,04,21,10,21,12.30
2017,04,21,10,22,12.30
2017,04,21,10,23,12.40
2017,04,21,10,24,12.50
2017,04,21,10,25,12.60
2017,04,21,10,26,12.60
2017,04,21,10,27,12.60
2017,04,21,10,28,12.60
2017,04,21,10,29,12.60
2017,04,21,10,30,12.60
2017,04,21,10,31,12.60
2017,04,21,10,32,12.60
2017,04,21,10,33,12.70
2017,04,21,10,34,12.70
2017,04,21,10,35,12.60
2017,04,21,10,36,12.60
2017,04,21,10,37,12.60
2017,04,21,10,38,12.50
2017,04,21,10,39,12.50
2017,04,21,10,40,12.50
2017,04,21,10,41,12.60
2017,04,21,10,42,12.60
2017,04,21,10,43,12.70
2017,04,21,10,44,12.80
2017,04,21,10,45,12.80
2017,04,21,10,46,12.80
2017,04,21,10,47,12.90
2017,04,21,10,48,12.90
2017,04,21,10,49,12.90
2017,04,21,10,50,12.80
2017,04,21,10,51,12.70
2017,04,21,10,52,12.50
2017,04,21,10,53,12.40
2017,04,21,10,54,12.30
2017,04,21,10,55,12.10
2017,04,21,10,56,12.00
2017,04,21,10,57,11.90
2017,04,21,10,58,11.90
2017,04,21,10,59,11.80
2017,04,21,11,00,11.80
2017,04,21,11,01,11.70
2017,04,21,11,02,11.70
2017,04,21,11,03,11.70
2017,04,21,11,04,11.80
2017,04,21,11,05,11.80
2017,04,21,11,06,11.80
2017,04,21,11,07,11.80
2017,04,21,11,08,11.80
2017,04,21,11,09,11.70
2017,04,21,11,10,11.70
2017,04,21,11,11,11.60
2017,04,21,11,12,11.60
2017,04,21,11,13,11.60
2017,04,21,11,14,11.60
2017,04,21,11,15,11.60
2017,04,21,11,16,11.60
2017,04,21,11,17,11.60
2017,04,21,11,18,11.60
2017,04,21,11,19,11.60
2017,04,21,11,20,11.60
2017,04,21,11,21,11.60
2017,04,21,11,22,11.70
2017,04,21,11,23,11.80
2017,04,21,11,24,11.70
2017,04,21,11,25,11.70
2017,04,21,11,26,11.70
2017,04,21,11,27,11.70
2017,04,21,11,28,11.50
2017,04,21,11,29,11.40
2017,04,21,11,30,11.30
2017,04,21,11,31,11.30
2017,04,21,11,32,11.30
2017,04,21,11,33,11.30
2017,04,21,11,34,11.30
2017,04,21,11,35,11.40
2017,04,21,11,36,11.50
2017,04,21,11,37,11.60
2017,04,21,11,38,11.80
2017,04,21,11,39,12.00
2017,04,21,11,40,12.10
2017,04,21,11,41,12.30
2017,04,21,11,42,12.40
2017,04,21,11,43,12.50
2017,04,21,11,44,12.60
2017,04,21,11,45,12.70
2017,04,21,11,46,12.70
2017,04,21,11,47,12.80
2017,04,21,11,48,12.80
2017,04,21,11,49,12.90
2017,04,21,11,50,12.90
2017,04,21,11,51,12.90
2017,04,21,11,52,12.80
2017,04,21,11,53,12.60
2017,04,21,11,54,12.50
2017,04,21,11,55,12.40
2017,04,21,11,56,12.40
2017,04,21,11,57,12.40
2017,04,21,11,58,12.50
2017,04,21,11,59,12.60
2017,04,21,12,00,12.60
2017,04,21,12,01,12.70
2017,04,21,12,02,12.70
2017,04,21,12,03,12.70
2017,04,21,12,04,12.80
2017,04,21,12,05,12.90
2017,04,21,12,06,13.00
2017,04,21,12,07,13.10
2017,04,21,12,08,13.30
2017,04,21,12,09,13.30
2017,04,21,12,10,13.30
2017,04,21,12,11,13.30
2017,04,21,12,12,13.30
2017,04,21,12,13,13.30
2017,04,21,12,14,13.20
2017,04,21,12,15,13.20
2017,04,21,12,16,13.20
2017,04,21,12,17,13.20
2017,04,21,12,18,13.10
2017,04,21,12,19,13.10
2017,04,21,12,20,13.10
2017,04,21,12,21,13.00
2017,04,21,12,22,13.10
2017,04,21,12,23,13.10
2017,04,21,12,24,13.00
2017,04,21,12,25,13.00
2017,04,21,12,26,12.90
2017,04,21,12,27,12.90
2017,04,21,12,28,12.90
2017,04,21,12,29,12.90
2017,04,21,12,30,12.90
2017,04,21,12,31,12.90
2017,04,21,12,32,12.90
2017,04,21,12,33,12.80
2017,04,21,12,34,12.80
2017,04,21,12,35,12.70
2017,04,21,12,36,12.70
2017,04,21,12,37,12.70
2017,04,21,12,38,12.60
2017,04,21,12,39,12.60
2017,04,21,12,40,12.60
2017,04,21,12,41,12.70
2017,04,21,12,42,12.70
2017,04,21,12,43,12.80
2017,04,21,12,44,12.90
2017,04,21,12,45,12.90
2017,04,21,12,46,13.00
2017,04,21,12,47,13.10
2017,04,21,12,48,13.10
2017,04,21,12,49,13.10
2017,04,21,12,50,13.10
2017,04,21,12,51,13.20
2017,04,21,12,52,13.20
2017,04,21,12,53,13.30
2017,04,21,12,54,13.30
2017,04,21,12,55,13.40
2017,04,21,12,56,13.50
2017,04,21,12,57,13.60
2017,04,21,12,58,13.70
2017,04,21,12,59,13.70
2017,04,21,13,00,13.70
2017,04,21,13,01,13.80
2017,04,21,13,02,13.90
2017,04,21,13,03,14.00
2017,04,21,13,04,14.00
2017,04,21,13,05,14.00
2017,04,21,13,06,13.90
2017,04,21,13,07,14.00
2017,04,21,13,08,14.00
2017,04,21,13,09,14.00
2017,04,21,13,10,14.00
2017,04,21,13,11,14.00
2017,04,21,13,12,14.00
2017,04,21,13,13,14.10
2017,04,21,13,14,14.10
2017,04,21,13,15,14.10
2017,04,21,13,16,14.10
2017,04,21,13,17,14.10
2017,04,21,13,18,14.10
2017,04,21,13,19,14.20
2017,04,21,13,20,14.20
2017,04,21,13,21,14.20
2017,04,21,13,22,14.20
2017,04,21,13,23,14.20
2017,04,21,13,24,14.20
2017,04,21,13,25,14.10
2017,04,21,13,26,14.10
2017,04,21,13,27,14.20
2017,04,21,13,28,14.20
2017,04,21,13,29,14.10
2017,04,21,13,30,14.10
2017,04,21,13,31,14.00
2017,04,21,13,32,14.00
2017,04,21,13,33,14.00
2017,04,21,13,34,14.00
2017,04,21,13,35,14.10
2017,04,21,13,36,14.00
2017,04,21,13,37,13.90
2017,04,21,13,38,13.80
2017,04,21,13,39,13.70
2017,04,21,13,40,13.70
2017,04,21,13,41,13.60
2017,04,21,13,42,13.60
2017,04,21,13,43,13.60
2017,04,21,13,44,13.50
2017,04,21,13,45,13.50
2017,04,21,13,46,13.60
2017,04,21,13,47,13.60
2017,04,21,13,48,13.70
2017,04,21,13,49,13.70
2017,04,21,13,50,13.70
2017,04,21,13,51,13.70
2017,04,21,13,52,13.70
2017,04,21,13,53,13.60
2017,04,21,13,54,13.60
2017,04,21,13,55,13.60
2017,04,21,13,56,13.60
2017,04,21,13,57,13.60
2017,04,21,13,58,13.70
2017,04,21,13,59,13.70
2017,04,21,14,00,13.80
2017,04,21,14,01,13.90
2017,04,21,14,02,14.10
2017,04,21,14,03,14.10
2017,04,21,14,04,14.20
2017,04,21,14,05,14.20
2017,04,21,14,06,14.20
2017,04,21,14,07,14.20
2017,04,21,14,08,14.20
2017,04,21,14,09,14.20
2017,04,21,14,10,14.20
2017,04,21,14,11,14.20
2017,04,21,14,12,14.20
2017,04,21,14,13,14.20
2017,04,21,14,14,14.20
2017,04,21,14,15,14.20
2017,04,21,14,16,14.20
2017,04,21,14,17,14.20
2017,04,21,14,18,14.10
2017,04,21,14,19,14.10
2017,04,21,14,20,14.20
2017,04,21,14,21,14.20
2017,04,21,14,22,14.40
2017,04,21,14,23,14.50
2017,04,21,14,24,14.70
2017,04,21,14,25,14.90
2017,04,21,14,26,15.00
2017,04,21,14,27,15.20
2017,04,21,14,28,15.30
2017,04,21,14,29,15.50
2017,04,21,14,30,15.70
2017,04,21,14,31,15.80
2017,04,21,14,32,15.80
2017,04,21,14,33,15.90
2017,04,21,14,34,16.00
2017,04,21,14,35,16.10
2017,04,21,14,36,16.10
2017,04,21,14,37,16.00
2017,04,21,14,38,15.90
2017,04,21,14,39,15.80
2017,04,21,14,40,15.60
2017,04,21,14,41,15.40
2017,04,21,14,42,15.20
2017,04,21,14,43,15.00
2017,04,21,14,44,14.90
2017,04,21,14,45,14.80
2017,04,21,14,46,14.70
2017,04,21,14,47,14.60
2017,04,21,14,48,14.50
2017,04,21,14,49,14.50
2017,04,21,14,50,14.50
2017,04,21,14,51,14.40
2017,04,21,14,52,14.40
2017,04,21,14,53,14.40
2017,04,21,14,54,14.40
2017,04,21,14,55,14.40
2017,04,21,14,56,14.40
2017,04,21,14,57,14.40
2017,04,21,14,58,14.40
2017,04,21,14,59,14.50
2017,04,21,15,00,14.50
2017,04,21,15,01,14.50
2017,04,21,15,02,14.50
2017,04,21,15,03,14.50
2017,04,21,15,04,14.50
2017,04,21,15,05,14.50
2017,04,21,15,06,14.60
2017,04,21,15,07,14.60
2017,04,21,15,08,14.60
2017,04,21,15,09,14.50
2017,04,21,15,10,14.50
2017,04,21,15,11,14.50
2017,04,21,15,12,14.50
2017,04,21,15,13,14.40
2017,04,21,15,14,14.40
2017,04,21,15,15,14.40
2017,04,21,15,16,14.40
2017,04,21,15,17,14.50
2017,04,21,15,18,14.50
2017,04,21,15,19,14.50
2017,04,21,15,20,14.60
2017,04,21,15,21,14.60
2017,04,21,15,22,14.60
2017,04,21,15,23,14.60
2017,04,21,15,24,14.50
2017,04,21,15,25,14.60
2017,04,21,15,26,14.60
2017,04,21,15,27,14.60
2017,04,21,15,28,14.60
2017,04,21,15,29,14.50
2017,04,21,15,30,14.60
2017,04,21,15,31,14.60
2017,04,21,15,32,14.60
2017,04,21,15,33,14.60
2017,04,21,15,34,14.70
2017,04,21,15,35,14.80
2017,04,21,15,36,14.90
2017,04,21,15,37,15.00
2017,04,21,15,38,15.20
2017,04,21,15,39,15.40
2017,04,21,15,40,15.50
2017,04,21,15,41,15.60
2017,04,21,15,42,15.70
2017,04,21,15,43,15.70
2017,04,21,15,44,15.80
2017,04,21,15,45,15.80
2017,04,21,15,46,15.80
2017,04,21,15,47,15.80
2017,04,21,15,48,15.80
2017,04,21,15,49,15.80
2017,04,21,15,50,15.90
2017,04,21,15,51,16.00
2017,04,21,15,52,16.10
2017,04,21,15,53,16.20
2017,04,21,15,54,16.30
2017,04,21,15,55,16.50
2017,04,21,15,56,16.60
2017,04,21,15,57,16.60
2017,04,21,15,58,16.60
2017,04,21,15,59,16.60
2017,04,21,16,00,16.50
2017,04,21,16,01,16.30
2017,04,21,16,02,16.20
2017,04,21,16,03,16.00
2017,04,21,16,04,15.80
2017,04,21,16,05,15.60
2017,04,21,16,06,15.50
2017,04,21,16,07,15.40
2017,04,21,16,08,15.40
2017,04,21,16,09,15.40
2017,04,21,16,10,15.40
2017,04,21,16,11,15.40
2017,04,21,16,12,15.50
2017,04,21,16,13,15.60
2017,04,21,16,14,15.70
2017,04,21,16,15,15.80
2017,04,21,16,16,15.90
2017,04,21,16,17,16.00
2017,04,21,16,18,16.10
2017,04,21,16,19,16.20
2017,04,21,16,20,16.20
2017,04,21,16,21,16.30
2017,04,21,16,22,16.40
2017,04,21,16,23,16.40
2017,04,21,16,24,16.50
2017,04,21,16,25,16.50
2017,04,21,16,26,16.60
2017,04,21,16,27,16.70
2017,04,21,16,28,16.70
2017,04,21,16,29,16.80
2017,04,21,16,30,16.80
2017,04,21,16,31,16.70
2017,04,21,16,32,16.60
2017,04,21,16,33,16.50
2017,04,21,16,34,16.30
2017,04,21,16,35,16.20
2017,04,21,16,36,16.10
2017,04,21,16,37,16.10
2017,04,21,16,38,16.00
2017,04,21,16,39,15.90
2017,04,21,16,40,15.90
2017,04,21,16,41,16.00
2017,04,21,16,42,16.00
2017,04,21,16,43,16.10
2017,04,21,16,44,16.10
2017,04,21,16,45,16.10
2017,04,21,16,46,16.10
2017,04,21,16,47,16.20
2017,04,21,16,48,16.30
2017,04,21,16,49,16.30
2017,04,21,16,50,16.30
2017,04,21,16,51,16.30
2017,04,21,16,52,16.30
2017,04,21,16,53,16.30
2017,04,21,16,54,16.30
2017,04,21,16,55,16.30
2017,04,21,16,56,16.30
2017,04,21,16,57,16.40
2017,04,21,16,58,16.30
2017,04,21,16,59,16.40
2017,04,21,17,00,16.40
2017,04,21,17,01,16.50
2017,04,21,17,02,16.50
2017,04,21,17,03,16.60
2017,04,21,17,04,16.70
2017,04,21,17,05,16.70
2017,04,21,17,06,16.70
2017,04,21,17,07,16.70
2017,04,21,17,08,16.60
2017,04,21,17,09,16.50
2017,04,21,17,10,16.40
2017,04,21,17,11,16.20
2017,04,21,17,12,16.20
2017,04,21,17,13,16.10
2017,04,21,17,14,16.00
2017,04,21,17,15,16.00
2017,04,21,17,16,15.90
2017,04,21,17,17,15.90
2017,04,21,17,18,15.80
2017,04,21,17,19,15.80
2017,04,21,17,20,15.80
2017,04,21,17,21,15.80
2017,04,21,17,22,15.90
2017,04,21,17,23,15.90
2017,04,21,17,24,15.90
2017,04,21,17,25,15.90
2017,04,21,17,26,15.90
2017,04,21,17,27,15.80
2017,04,21,17,28,15.80
2017,04,21,17,29,15.80
2017,04,21,17,30,15.80
2017,04,21,17,31,15.80
2017,04,21,17,32,15.80
2017,04,21,17,33,15.80
2017,04,21,17,34,15.80
2017,04,21,17,35,15.70
2017,04,21,17,36,15.70
2017,04,21,17,37,15.70
2017,04,21,17,38,15.60
2017,04,21,17,39,15.60
2017,04,21,17,40,15.60
2017,04,21,17,41,15.60
2017,04,21,17,42,15.60